Tracking 27405 objects as of 2-Jun-2023
HD Live streaming from Space Station
objects crossing your sky now

COSMOS 1275 DEB

Track COSMOS 1275 DEB now!
10-day predictions


NORAD ID: 42144
Int'l Code: 1981-053RG
Perigee: 908.2 km
Apogee: 993.4 km
Inclination: 82.8 °
Period: 103.9 minutes
Semi major axis: 7321 km
RCS: Unknown
Launch date: June 4, 1981
Source: Commonwealth of Independent States (former USSR) (CIS)
Launch site: PLESETSK MISSILE AND SPACE COMPLEX (PKMTR)

Note: This is SATELLITE DEBRIS
Your satellite tracking list
Your tracking list is empty




NASA's NSSDC Master Catalog

Two Line Element Set (TLE):
1 42144U 81053RG  23150.77679111  .00000474  00000-0  39565-3 0  9998
2 42144  82.8063  82.9819 0058147 358.1442  30.0249 13.85717032481191
Source of the keplerian elements: AFSPC